Weather History for Montague, CA

Change the Weather History Date:

Wednesday, December 4, 2013

  Actual Average Record
Temperature  
Mean Temperature 21 °F 35 °F  
Max Temperature 33 °F 45 °F 64 °F (1979)
Min Temperature 8 °F 26 °F 7 °F (1948)
Degree Days  
Heating Degree Days 44 30  
Month to date heating degree days 121 118  
Since 1 July heating degree days 1441 1424  
Cooling Degree Days 0 0  
Month to date cooling degree days 0 0  
Year to date cooling degree days 776 544  
Moisture  
Dew Point 6 °F    
Average Humidity 57    
Maximum Humidity 73    
Minimum Humidity 32    
Precipitation  
Precipitation 0.00 in 0.08 in 1.40 in (1962)
Month to date precipitation 0.03 0.31  
Year to date precipitation 5.65 16.12  
Sea Level Pressure  
Sea Level Pressure 30.22 in    
Wind  
Wind Speed 5 mph (North)    
Max Wind Speed 22 mph    
Max Gust Speed 25 mph    
Visibility 10 miles    
Events      
T = Trace of Precipitation, MM = Missing Value Source: NWS Daily Summary

Daily Weather History Graph

Daily Weather History Graph

Search for Another Location

Airport:

Trip Planner

Search our weather history database for the weather conditions in past years. The results will help you decide how hot, cold, wet, or windy it might be!

Date:

Astronomy

Dec. 04, 2013 Rise Set
Actual Time 7:21 AM PST 4:39 PM PST
Civil Twilight 6:49 AM PST 5:10 PM PST
Nautical Twilight 6:15 AM PST 5:45 PM PST
Astronomical Twilight 5:41 AM PST 6:18 PM PST
Moon 8:53 AM PST (12/4) 6:56 PM PST (12/4)
Length of Visible Light 10h 20m
Length of Day
9h 18m
Waxing Crescent, 5% of the Moon is Illuminated
Dec 4
Waxing Crescent
Dec 9
First Quarter
Dec 17
Full
Dec 25
Last Quarter
Jan 1
New

Hourly Weather History & Observations

Time (PST) Temp. Windchill Dew Point Humidity Pressure Visibility Wind Dir Wind Speed Gust Speed Precip Events Conditions
12:53 AM 21.9 °F 6.9 °F 7.0 °F 53% 30.14 in 10.0 mi North 19.6 mph - N/A   Clear
1:53 AM 21.0 °F 9.9 °F 7.0 °F 55% 30.17 in 10.0 mi NNW 10.4 mph - N/A   Clear
2:53 AM 21.0 °F 7.1 °F 7.0 °F 55% 30.17 in 10.0 mi NNW 16.1 mph - N/A   Clear
3:53 AM 19.0 °F 6.8 °F 7.0 °F 59% 30.19 in 10.0 mi North 11.5 mph - N/A   Clear
4:53 AM 16.0 °F 4.4 °F 6.1 °F 65% 30.20 in 10.0 mi NNE 9.2 mph - N/A   Clear
5:53 AM 14.0 °F 5.1 °F 5.0 °F 67% 30.22 in 10.0 mi North 5.8 mph - N/A   Clear
6:53 AM 15.1 °F 7.7 °F 6.1 °F 68% 30.23 in 10.0 mi NE 4.6 mph - N/A   Clear
7:53 AM 10.0 °F - 3.9 °F 76% 30.25 in 10.0 mi Calm Calm - N/A   Clear
8:53 AM 18.0 °F - 9.0 °F 68% 30.26 in 10.0 mi Calm Calm - N/A   Clear
9:53 AM 24.1 °F 19.7 °F 8.1 °F 51% 30.25 in 10.0 mi Variable 3.5 mph - N/A   Clear
10:53 AM 25.0 °F 20.7 °F 8.1 °F 49% 30.25 in 10.0 mi Variable 3.5 mph - N/A   Clear
11:53 AM 28.0 °F 24.2 °F 8.1 °F 43% 30.23 in 10.0 mi NNE 3.5 mph - N/A   Clear
12:53 PM 30.0 °F 25.2 °F 7.0 °F 38% 30.21 in 10.0 mi NW 4.6 mph - N/A   Clear
1:53 PM 32.0 °F 26.4 °F 8.1 °F 37% 30.19 in 10.0 mi NNE 5.8 mph - N/A   Clear
2:53 PM 33.1 °F 27.7 °F 7.0 °F 34% 30.18 in 10.0 mi NE 5.8 mph - N/A   Clear
3:53 PM 32.0 °F 26.4 °F 6.1 °F 34% 30.19 in 10.0 mi NW 5.8 mph - N/A   Clear
4:53 PM 25.0 °F 18.1 °F 8.1 °F 49% 30.20 in 10.0 mi SSW 5.8 mph - N/A   Clear
5:53 PM 18.0 °F 9.8 °F 6.1 °F 60% 30.23 in 10.0 mi SE 5.8 mph - N/A   Clear
6:53 PM 15.1 °F - 5.0 °F 64% 30.24 in 10.0 mi Calm Calm - N/A   Clear
7:53 PM 18.0 °F - 7.0 °F 62% 30.26 in 10.0 mi Calm Calm - N/A   Clear
8:53 PM 10.9 °F 2.9 °F 3.0 °F 70% 30.27 in 10.0 mi SE 4.6 mph - N/A   Clear
9:53 PM 14.0 °F - 5.0 °F 67% 30.26 in 10.0 mi Calm Calm - N/A   Clear
10:53 PM 10.9 °F - 3.0 °F 70% 30.27 in 10.0 mi Calm Calm - N/A   Clear
11:53 PM 9.0 °F 2.4 °F 1.9 °F 73% 30.27 in 10.0 mi West 3.5 mph - N/A   Clear